Meteo Giornale » Osservazioni meteo Gran Bretagna » Biggin Hill

ore: 22:20 - Osservazioni Meteo Biggin Hill
Lat. 51° 19' N Lon. 0° 2' E Alt. 183 metri s.l.m.

molto_nuvoloso Europe/London

13 °C

Molto Nuvoloso

Temp. 24 Ore

13 °C

14 °C

Sud/Sud-Ovest

27.8 Km/h

Dew point 12 °C

Umidità 93 %

Visibilità  4 Km

Il sole sorge alle ore 06:48

Il sole tramonta alle ore 16:38

Data e Ora Cielo e Fenomeni T °C DP °C Um. % Pres. hPa Vis. km Vento km/h
Ieri h: 22:20 molto_nuvoloso Molto Nuvoloso 13 12 93 1020 4 S/SO 27.8
Ieri h: 21:50 molto_nuvoloso Molto Nuvoloso 13 13 100 1020 4 S/SO 27.8
Ieri h: 21:20 molto_nuvoloso Molto Nuvoloso 13 13 100 1020 4 S/SO 22.2
Ieri h: 20:50 molto_nuvoloso Molto Nuvoloso 13 13 100 1020 10 S/SO 25.9
Ieri h: 20:20 molto_nuvoloso Molto Nuvoloso 13 13 100 1020 3 S/SO 20.3
Ieri h: 19:50 molto_nuvoloso Molto Nuvoloso 13 13 100 1020 3 SO 20.3
Ieri h: 19:20 coperto_pioggia Pioggia Debole 13 13 100 1020 3 S/SO 20.3
Ieri h: 18:50 coperto_pioggia Pioggia Debole 13 13 100 1020 2 SO 18.5
Ieri h: 18:20 coperto_pioggia Pioggia Debole 13 13 100 1020 2 SO 18.5
Ieri h: 17:50 coperto_pioggia Pioviggine Leggera 13 13 100 1019 2 SO 20.3
Ieri h: 17:20 molto_nuvoloso Molto Nuvoloso 14 13 93 1019 3 S/SO 22.2
Ieri h: 16:50 molto_nuvoloso Molto Nuvoloso 13 13 100 1018 3 S/SO 24
Ieri h: 16:20 molto_nuvoloso Molto Nuvoloso 14 13 93 1018 10 SO 24
Ieri h: 15:50 molto_nuvoloso Molto Nuvoloso 14 13 93 1018 10 SO 25.9
Ieri h: 15:20 molto_nuvoloso Molto Nuvoloso 14 13 93 1018 10 SO 24
Ieri h: 14:50 coperto_pioggia Pioggia Debole 14 13 93 1018 3 SO 24
Ieri h: 14:20 coperto_pioggia Pioviggine Leggera 14 13 93 1018 7 SO 24
Ieri h: 13:50 coperto_pioggia Pioviggine Leggera 14 13 93 1018 7 SO 25.9
Ieri h: 13:20 coperto_pioggia Pioviggine Leggera 14 13 93 1017 4 SO 27.8
Ieri h: 12:50 molto_nuvoloso Molto Nuvoloso 14 13 93 1017 10 SO 24
Ieri h: 12:20 molto_nuvoloso Molto Nuvoloso 14 13 93 1017 10 SO 25.9
Ieri h: 11:50 molto_nuvoloso Molto Nuvoloso 14 13 93 1017 10 SO 24
Ieri h: 11:20 molto_nuvoloso Molto Nuvoloso 14 13 93 1017 10 SO 27.8
Ieri h: 10:50 molto_nuvoloso Molto Nuvoloso 13 13 100 1017 10 SO 27.8
Ieri h: 10:20 molto_nuvoloso Molto Nuvoloso 13 12 93 1016 6 SO 25.9
Ieri h: 09:50 molto_nuvoloso Molto Nuvoloso 13 12 93 1016 10 SO 31.5
Ieri h: 09:20 molto_nuvoloso Molto Nuvoloso 13 12 93 1016 10 SO 31.5
Ieri h: 08:50 molto_nuvoloso Molto Nuvoloso 14 12 87 1016 10 SO 33.3
Ieri h: 08:20 molto_nuvoloso Molto Nuvoloso 14 12 87 1016 10 SO 31.5
Ieri h: 07:50 molto_nuvoloso Molto Nuvoloso 13 11 87 1015 10 SO 25.9
Ieri h: 07:20 molto_nuvoloso Molto Nuvoloso 13 12 93 1015 10 SO 29.6
Ieri h: 06:50 molto_nuvoloso Molto Nuvoloso 13 12 93 1015 10 SO 25.9
Ieri h: 06:20 molto_nuvoloso Molto Nuvoloso 13 12 93 1014 10 S/SO 33.3